Simultaneous Nadir Overpasses (SNOs) Predictions

Prediction of SNOs between GOES-15 and LANDSAT-8 Satellite Orbit:

Table of predicted SNOs for the next 14.0 days since TLE Epoch: 11/1/2024
Index Date Time (GOES-15) GOES-15 Lat,Lon LANDSAT-8 Lat,Lon Distance(km) Time Diff (sec)
1 11/02/2024 06:20:53 -0.26, 61.36 0.54, 57.61 426.99 80
2 11/03/2024 17:47:30 0.26, 61.48 1.14, 65.71 480.72 80
3 11/04/2024 06:08:46 -0.25, 61.39 -0.05, 60.55 95.70 80
4 11/06/2024 05:59:21 -0.25, 61.42 -0.71, 63.48 234.47 80
5 11/06/2024 18:20:46 0.24, 61.52 -0.45, 58.29 367.39 80
6 11/08/2024 18:08:41 0.23, 61.56 0.13, 61.23 38.72 80
7 11/10/2024 17:53:58 0.23, 61.61 0.78, 64.15 289.38 80
8 11/11/2024 06:15:16 -0.22, 61.53 0.31, 58.98 289.77 80
9 11/13/2024 06:05:53 -0.22, 61.58 -0.27, 61.91 37.62 80
10 11/15/2024 05:53:52 -0.22, 61.63 -0.90, 64.83 363.85 80
11 11/15/2024 18:15:18 0.21, 61.71 -0.26, 59.64 237.03 80
